Location: Arrakis Observatory
(44.1122°N, 95.7153°W)
Time: 00:31:03
(UTC-05:00)

Daily predictions for brighter satellites

Satellite Brightness Start Highest point End
(mag) Time Altitude Azimuth Time Altitude Azimuth Time Altitude Azimuth
Meteor 2-4 Rocket 3.6 00:02:03 10° NNW 00:07:33 80° W 00:08:24 64° SSW
Cosmos 2263 4.1 00:09:17 66° SE 00:09:33 67° ESE 00:15:10 10° NNE
Cosmos 1818 3.8 00:12:44 53° E 00:12:44 53° E 00:17:31 10° NE
Cosmos 1544 Rocket 3.7 00:13:56 68° NNE 00:13:56 68° NNE 00:17:45 10° N
SL-8 R/B 3.7 00:13:02 10° WNW 00:17:32 77° WNW 00:17:32 77° WNW
H-2A R/B 4.2 00:14:03 10° NE 00:16:44 25° ENE 00:16:44 25° ENE
Cosmos 1633 3.8 00:19:12 41° NW 00:19:12 41° NW 00:22:08 10° N
Meteor 2-15 Rocket 4.4 00:16:55 10° NNW 00:23:03 75° W 00:24:09 60° SSW
Cosmos 1315 Rocket 3.7 00:26:58 47° NW 00:26:58 47° NW 00:30:10 10° N
Iridium 4 Rocket 4.3 00:22:06 10° NNW 00:27:49 52° W 00:29:11 43° SW
Lacrosse 5 rocket 3.3 00:27:20 10° W 00:30:35 25° NNW 00:33:44 10° NNE
Cosmos 1833 4.1 00:25:37 10° NNW 00:31:15 72° ENE 00:31:47 67° ESE
CZ-4C R/B 4.5 00:38:49 39° N 00:38:49 39° N 00:41:16 10° N
CZ-2C R/B 4.1 00:33:29 10° NE 00:37:09 24° E 00:37:09 24° E
Cosmos 2369 Rocket 2.7 00:37:36 38° WSW 00:39:27 53° WNW 00:44:59 10° NNE
Cosmos 1346 Rocket 3.8 00:36:16 10° N 00:38:59 43° N 00:38:59 43° N
GP-B 4.2 00:42:21 10° NNE 00:45:42 37° NE 00:45:42 37° NE
Meteor 1-12 Rocket 4.1 00:47:49 76° ESE 00:47:56 77° E 00:53:36 10° NNE
Cosmos 2227 Rocket 4.3 00:49:24 10° N 00:53:30 20° NE 00:56:53 12° E
Cosmos 1447 Rocket 4.4 00:48:23 10° NNW 00:54:32 70° W 00:55:16 64° SW
CZ-4B R/B 3.8 00:57:03 22° N 00:57:03 22° N 00:58:19 10° N
Cosmos 2219 3.4 00:50:06 10° NNW 00:55:41 59° ENE 00:56:13 56° E
Cosmos 1066 Rocket 4.3 00:53:41 10° N 00:59:01 61° ENE 00:59:04 61° E
NOSS 3-3 (A) 4.4 01:01:38 47° ESE 01:01:38 47° ESE 01:07:32 10° NE
NOSS 3-3 (C) 4.4 01:01:44 47° ESE 01:01:44 47° ESE 01:07:37 10° NE
ISS -0.6 00:59:12 10° NW 01:00:34 19° NNW 01:00:34 19° NNW
Cosmos 968 Rocket 3.4 00:57:42 10° NNW 01:02:41 81° N 01:02:41 81° N
Cosmos 1943 Rocket 2.1 01:03:11 77° W 01:03:27 79° WNW 01:09:06 10° NNE
Cosmos 2100 Rocket 3.9 01:11:20 72° SSW 01:12:04 87° W 01:18:29 10° N
Cosmos 2297 Rocket 4.3 01:10:06 10° N 01:14:16 21° NE 01:18:02 11° E
Helios 1A Rocket 4.1 01:14:54 10° NNE 01:17:41 39° NE 01:17:41 39° NE
Cosmos 1459 Rocket 3.8 01:19:07 74° SW 01:19:38 82° W 01:25:44 10° N
ATLAS 2AS CENTAUR R/B 3.0 01:12:40 10° NW 01:20:38 62° WSW 01:21:47 57° SSW
Cosmos 1975 4.1 01:22:11 38° NNW 01:22:11 38° NNW 01:25:05 10° N
Cosmos 2016 Rocket 3.8 01:25:51 77° SSE 01:26:15 82° E 01:32:23 10° N
USA 234 3.7 01:20:49 10° NE 01:27:13 58° NNW 01:32:38 15° WSW
ALOS 2 4.1 01:34:03 28° WNW 01:34:03 28° WNW 01:36:53 10° NNW
Cosmos 44 Rocket 4.3 01:28:31 10° NW 01:32:03 38° WNW 01:32:03 38° WNW
MOS 1-B Rocket 4.2 01:36:13 58° SW 01:36:50 61° W 01:43:49 10° NNW
Cosmos 2061 Rocket 4.2 01:36:25 57° WSW 01:37:20 63° W 01:43:43 10° N
Cosmos 1802 Rocket 4.0 01:41:48 60° WSW 01:42:32 65° W 01:48:50 10° N
Cosmos 2173 Rocket 4.3 01:43:29 51° WSW 01:44:25 55° WNW 01:50:41 10° N
Lacrosse 5 4.1 01:40:47 10° WNW 01:44:52 23° NNW 01:48:57 10° NE
CZ-2C R/B 3.0 01:47:09 75° NNE 01:47:09 75° NNE 01:51:36 10° NNW
Cosmos 1864 Rocket 4.3 01:46:56 72° SSE 01:47:31 79° E 01:53:44 10° N
BREEZE-M DEB (TANK) 3.5 01:45:28 10° WNW 01:49:20 73° SSW 02:04:27 10° SE
H-2A R/B 4.0 01:49:30 10° N 01:53:22 31° WNW 01:53:22 31° WNW
Cosmos 44 3.9 01:50:34 10° NW 01:54:35 50° WNW 01:54:35 50° WNW
Cosmos 1777 Rocket 4.5 01:51:13 10° NNW 01:55:32 49° WNW 01:55:32 49° WNW
BREEZE-M DEB (TANK) 3.9 01:38:19 10° WNW 01:56:30 83° NNE 01:58:47 36° ESE
Cosmos 1606 Rocket 4.2 01:58:06 51° NNW 01:58:06 51° NNW 02:01:28 10° N
ATLAS CENTAUR R/B 3.3 02:03:04 27° E 02:03:04 27° E 02:06:22 10° NE
Cosmos 972 Rocket 4.3 01:58:13 10° N 02:03:09 57° ENE 02:03:33 56° E
Cosmos 1725 Rocket 3.8 02:04:16 69° SW 02:04:54 77° W 02:11:07 10° N
Cosmos 1816 Rocket 4.4 02:00:29 10° N 02:06:49 90° WSW 02:07:38 70° S
Lacrosse 5 rocket 4.4 02:09:32 10° NNW 02:10:54 12° N 02:12:16 10° NNE
Cosmos 2208 Rocket 3.9 02:12:30 78° WNW 02:12:30 78° WNW 02:17:44 10° NNE
SeaSat 1 3.3 02:11:46 37° E 02:13:06 46° NE 02:17:50 10° NNW
Cosmos 2098 Rocket 4.4 02:12:12 56° SW 02:13:47 71° W 02:21:28 10° N
Cosmos 1340 4.3 02:12:52 10° NNW 02:15:03 31° NNW 02:15:03 31° NNW
CZ-2C R/B 3.2 02:13:16 10° N 02:18:16 45° WNW 02:18:40 44° W
Cosmos 2298 Rocket 4.3 02:15:59 10° NNW 02:21:16 63° ENE 02:22:01 56° ESE
Cosmos 1697 Rocket 4.2 02:21:51 23° ESE 02:22:32 24° ESE 02:26:58 10° NE
Tsikada Rocket 4.2 02:16:55 10° NNW 02:23:04 54° W 02:23:41 52° WSW
Cosmos 2058 Rocket 3.7 02:25:36 50° NW 02:25:36 50° NW 02:29:21 10° N
BREEZE-M R/B 4.2 02:16:41 10° WNW 02:24:56 86° NNE 02:30:49 10° ESE
Cosmos 2082 3.6 02:24:47 10° NNW 02:30:28 87° ENE 02:31:07 71° SSE
Cosmos 1980 Rocket 4.1 02:31:15 16° ESE 02:32:36 17° E 02:36:12 10° ENE
Cosmos 2346 Rocket 4.4 02:27:18 10° N 02:33:37 84° W 02:34:42 63° S
Meteor 2-9 Rocket 4.3 02:34:05 63° WSW 02:34:42 68° WNW 02:40:28 10° N
Cosmos 2227 Rocket 2.0 02:32:32 10° NNW 02:38:14 78° WSW 02:38:39 73° SSW
NOSS 3-4 (A) 3.8 02:37:02 10° NW 02:44:02 80° NE 02:49:39 19° SE
NOSS 3-4 (C) 3.8 02:37:08 10° NW 02:44:08 79° NE 02:49:54 18° SE
Cosmos 1666 4.3 02:45:48 27° NW 02:45:48 27° NW 02:48:11 10° N
Cosmos 1943 Rocket 4.5 02:44:55 10° W 02:48:10 15° NW 02:51:27 10° N
NPP 4.3 02:43:15 10° NNE 02:48:26 46° E 02:49:32 40° SE
PSLV R/B 3.6 02:43:58 10° NNE 02:48:25 87° NNE 02:48:25 87° NNE
Cosmos 972 4.4 02:44:32 10° NNW 02:49:27 77° ENE 02:50:08 64° SE
SL-16 R/B 4.3 02:47:47 10° ESE 02:52:50 27° ENE 02:57:54 10° N
Cosmos 220 Rocket 4.5 02:50:18 10° NNW 02:53:42 50° NW 02:53:42 50° NW
Cosmos 1898 Rocket 3.4 02:51:48 10° NNW 02:57:09 73° WSW 02:57:32 70° SW
Cosmos 2150 Rocket 3.8 02:52:51 10° NNW 02:58:04 73° WSW 02:58:19 71° SW
Cosmos 2297 Rocket 2.1 02:53:18 10° NNW 02:58:57 75° WSW 02:59:47 63° S
Cosmos 1763 Rocket 4.2 02:59:24 38° SE 03:00:24 42° ESE 03:05:14 10° NE
Cosmos 2278 3.8 03:01:04 52° WSW 03:02:09 63° WNW 03:07:49 10° NNE
Cosmos 1937 Rocket 3.3 02:58:22 10° NNW 03:03:36 88° WSW 03:04:29 62° SSE
Okean 3 Rocket 3.6 02:59:55 10° N 03:04:19 68° E 03:04:41 64° ESE
Cosmos 2369 3.8 03:03:56 54° WSW 03:05:02 68° WNW 03:10:43 10° NNE
BREEZE-M DEB (TANK) 3.2 03:07:38 61° WNW 03:08:03 68° NNW 03:11:33 10° ENE
Cosmos 2228 4.4 03:08:32 28° WNW 03:08:32 28° WNW 03:11:55 10° NNW
BREEZE-M DEB (TANK) 4.1 03:02:43 10° WNW 03:06:29 28° WNW 03:06:29 28° WNW
Cosmos 1464 Rocket 3.9 03:07:19 51° SSW 03:09:05 84° W 03:15:30 10° N
Landsat 4 4.0 03:13:27 62° NW 03:13:27 62° NW 03:16:46 10° NNW
CZ-3A R/B 4.2 03:07:23 32° SSW 03:13:23 56° SE 03:18:35 10° ENE
Cosmos 405 Rocket 3.3 03:11:07 10° NNW 03:14:27 50° NW 03:14:27 50° NW
ERS-2 3.3 03:12:39 10° NNE 03:16:06 34° E 03:16:20 34° ESE
Meteor 2-5 Rocket 3.8 03:10:30 10° NNW 03:16:22 68° W 03:17:49 50° SSW
SL-16 R/B 4.4 03:18:44 10° SE 03:22:07 16° E 03:25:31 10° ENE
ARIANE 5 R/B 3.7 03:22:12 10° NNE 03:26:57 36° E 03:29:33 22° SSE
Cosmos 1656 3.6 03:25:27 49° SW 03:27:01 79° WNW 03:32:42 10° NNE
Lacrosse 5 4.5 03:25:42 10° NW 03:29:24 20° N 03:33:05 10° NE
IRS-1C 4.1 03:26:07 10° NNE 03:31:29 76° ESE 03:33:20 42° S
CZ-2D R/B 3.5 03:27:53 10° NNE 03:32:44 32° E 03:36:12 16° SSE
AQUA 3.7 03:29:24 10° NNE 03:34:10 83° WNW 03:35:17 53° SSW
Cosmos 1766 3.3 03:33:56 60° SE 03:34:26 69° E 03:38:22 10° NNE
USA 161 2.8 03:35:07 38° ENE 03:35:07 38° ENE 03:37:29 10° N
Cosmos-2242 4.3 03:33:18 25° SE 03:35:05 36° E 03:39:00 10° NNE
Cosmos 1513 Rocket 4.5 03:33:41 42° SW 03:35:40 65° W 03:41:43 10° N
OE (NEXTSAT) 4.4 03:40:27 74° NW 03:40:38 77° NNW 03:44:15 10° ENE
ATLAS CENTAUR R/B 2.6 03:39:24 33° W 03:41:02 44° NW 03:45:48 10° NNE
Cosmos 1441 Rocket 3.2 03:41:46 10° N 03:45:47 88° E 03:46:44 52° SSE
Meteor 1-24 Rocket 3.8 03:40:24 10° NNW 03:46:07 66° W 03:48:39 35° SSW
SL-24 R/B 4.5 03:43:41 23° SSE 03:46:35 68° ENE 03:50:58 10° N
Cosmos 1408 Rocket 3.5 03:44:01 10° N 03:48:27 89° SW 03:50:00 40° S
ADEOS 3.5 03:44:49 10° NNE 03:50:04 90° ENE 03:52:15 37° SSW
SeaSat 1 3.6 03:51:33 25° W 03:51:33 25° W 03:54:55 10° NW
Lacrosse 5 rocket 4.2 03:49:21 10° NNW 03:51:29 15° NNE 03:53:38 10° NE
Okean O Rocket 4.2 03:49:34 10° NE 03:52:16 16° E 03:54:57 10° SE
Spot 4 Rocket 4.0 03:47:09 10° NNE 03:52:21 84° ESE 03:54:39 34° S
IRAS Rocket 4.3 03:47:19 10° NNE 03:52:56 71° WNW 03:55:20 35° SW
Meteor 1-22 Rocket 4.4 03:50:22 35° SSW 03:53:04 73° W 03:59:12 10° N
Cosmos 2227 4.3 03:48:31 10° NNW 03:54:19 83° ENE 04:00:05 10° SSE
CBERS-1 4.3 03:49:23 10° N 03:54:24 55° WNW 03:56:10 37° SW
Cosmos 1766 Rocket 3.5 03:50:32 10° N 03:54:59 83° W 03:56:43 37° S
In-Cosmos 22 4.2 03:51:13 10° N 03:56:32 74° ENE 04:00:51 16° SSE
UNK 4.1 03:52:50 16° SSE 03:56:34 65° ENE 04:01:14 10° N
Cosmos 1707 4.2 03:53:40 10° NW 03:56:21 24° WNW 03:56:21 24° WNW
Cosmos 1805 3.7 03:58:52 32° SSE 04:00:27 58° E 04:04:19 10° NNE
Cosmos 1461 2.8 03:56:46 10° NNW 04:00:57 80° NE 04:04:56 10° SE
IRS-1D 3.7 03:56:23 10° NNE 04:01:21 67° ESE 04:04:12 26° S
Resurs 1-4 Rocket 2.5 03:56:22 10° NNE 04:01:34 57° E 04:05:02 21° S
EO 1 Del DPAF 3.9 03:59:47 15° SSE 04:02:50 54° ENE 04:06:39 10° N
Cosmos 1697 Rocket 3.0 04:03:35 31° WSW 04:06:06 53° WNW 04:11:40 10° NNE
SL-08 R/B 4.3 04:09:09 26° W 04:09:25 27° W 04:13:20 10° NW
Nadezhda 4 Rocket 4.3 04:06:28 10° NNW 04:12:23 49° W 04:15:40 26° SSW
Cosmos 1980 Rocket 2.2 04:13:01 29° SW 04:15:57 71° WNW 04:21:38 10° NNE
Cosmos 1758 3.2 04:14:38 34° SSW 04:16:18 82° W 04:20:19 10° N
Cosmos 1674 3.9 04:13:19 10° N 04:16:56 41° ENE 04:20:29 10° SSE
Cosmos 2360 Rocket 4.5 04:13:24 10° SE 04:17:04 18° E 04:20:44 10° ENE
Cosmos 1437 2.7 04:13:54 10° NNW 04:17:15 86° W 04:18:38 33° S
Cosmos 1953 2.3 04:16:53 34° SSW 04:18:35 75° W 04:22:41 10° N
Cosmos 1842 Rocket 4.2 04:15:15 16° SSE 04:18:39 54° E 04:23:02 10° NNE
Cosmos 372 Rocket 4.0 04:13:39 10° NNW 04:18:47 79° ENE 04:23:52 10° SSE
Cosmos 2227 Rocket 4.3 04:20:09 10° W 04:20:25 10° W 04:20:25 10° W
MTI 4.2 04:24:39 12° SSE 04:27:36 66° ENE 04:30:54 10° N
Cosmos 2151 4.4 04:25:21 10° N 04:29:25 39° ENE 04:33:27 10° SE
Cosmos 2322 Rocket 2.5 04:25:36 18° S 04:29:49 62° ESE 04:35:22 10° NNE
Cosmos 1655 Rocket 4.0 04:29:29 10° N 04:35:56 83° W 04:42:19 10° S
SL-16 R/B 2.6 04:30:27 12° S 04:36:06 54° W 04:42:10 10° NNW
Meteor 1-21 Rocket 4.4 04:30:59 10° NNW 04:36:51 64° W 04:42:41 10° S
USA 81 4.0 04:36:22 13° S 04:41:03 85° W 04:46:23 10° N
SL-24 R/B - RUBIN 2 4.4 04:37:00 20° SW 04:41:09 89° NW 04:47:39 10° NE
Cosmos 2026 Rocket 4.0 04:36:44 10° NNW 04:43:01 69° W 04:49:12 10° S
Cosmos 1125 Rocket 4.0 04:40:27 10° NW 04:45:12 37° WSW 04:49:22 13° SSW
ERS-2 4.0 04:47:03 10° NNW 04:49:39 18° WNW 04:51:11 14° W
Cosmos 1634 Rocket 4.5 04:51:12 16° SW 04:55:56 45° WNW 05:02:00 10° N
DELTA 2 R/B (1) 4.4 04:53:35 16° SW 04:57:21 36° SSE 05:02:25 10° E
Cosmos 1470 2.8 04:56:47 13° SSW 05:00:13 68° W 05:04:12 10° N
RESURS DK-1 3.1 04:56:31 10° NW 05:00:14 32° WSW 05:03:55 10° S
Cosmos 540 Rocket 3.8 04:56:28 16° SW 05:00:24 50° WNW 05:05:27 10° N
Cosmos 1500 Rocket 3.9 04:56:39 10° NNW 05:00:50 45° W 05:04:58 10° SSW
Cosmos 2058 3.6 04:59:53 10° N 05:04:04 59° E 05:08:13 10° SSE
ADEOS II 4.0 05:00:39 10° NE 05:05:10 28° E 05:09:38 10° SSE
SL-16 R/B 2.2 05:00:26 13° SSW 05:05:31 75° WNW 05:11:14 10° NNE
IRS-1C Rocket 4.1 05:00:31 10° NNE 05:05:48 89° WNW 05:11:04 10° SSW
ARIANE 5 R/B 3.6 05:01:30 10° N 05:05:58 31° WNW 05:09:52 13° WSW
MOZ.5/SAFIR/RUBIN 5/SL-8 3.7 05:02:43 10° S 05:07:25 81° WSW 05:12:07 10° NNW
Aureole 1 Rocket 4.4 05:01:56 13° SSW 05:07:43 67° WNW 05:15:42 10° NNE
Cosmos 2263 Rocket 2.2 05:05:28 10° NNW 05:11:04 87° WSW 05:16:38 10° SSE
CZ-2D R/B 2.9 05:07:51 10° N 05:12:49 37° WNW 05:17:31 11° SW
Lacrosse 5 3.5 05:08:51 10° NW 05:13:37 38° NNE 05:18:21 10° E
Cosmos 2221 2.7 05:09:31 10° S 05:13:47 73° E 05:18:06 10° NNE
PSLV R/B 3.7 05:10:33 10° N 05:14:22 69° WNW 05:18:05 10° SSW
Cosmos 1544 4.2 05:12:37 14° SW 05:15:08 27° WNW 05:18:17 10° NNW
Cosmos 2084 3.4 05:15:05 10° NW 05:19:10 89° NE 05:23:28 10° SE
ATLAS CENTAUR R/B 4.2 05:19:30 10° NW 05:21:22 12° NNW 05:23:13 10° N
UNK 2.4 05:19:23 10° WNW 05:22:01 53° NNE 05:24:03 10° E
Cosmos 1633 Rocket 4.1 05:18:20 10° N 05:22:38 49° ENE 05:26:54 10° SSE
UNKNOWN OBJECT B 4.0 05:22:11 10° NNW 05:25:24 25° WNW 05:28:34 10° SW
CZ-4B R/B 3.2 05:20:11 10° NNE 05:25:44 81° WNW 05:31:09 10° SSW
GEOS 3 Rocket 4.1 05:21:35 10° S 05:26:25 38° WSW 05:31:14 10° NW
Cosmos 2322 4.2 05:21:43 10° S 05:27:22 65° ESE 05:33:03 10° NNE
Cosmos 1733 3.8 05:23:57 10° SSW 05:27:31 39° WNW 05:31:08 10° N
Okean O Rocket 1.9 05:24:39 10° N 05:28:56 52° WNW 05:33:14 10° SSW
Cosmos 1680 Rocket 4.5 05:25:20 10° S 05:30:20 49° ESE 05:35:23 10° NNE
Lacrosse 5 rocket 2.0 05:27:52 10° NW 05:31:26 51° NE 05:35:03 10° ESE
Aureole 3 4.0 05:30:42 10° NNW 05:35:15 73° W 05:41:05 10° S
Alouette 2 Rocket 3.4 05:32:08 10° NNW 05:35:47 84° WSW 05:40:21 10° S
BREEZE-M DEB (TANK) 2.5 05:32:58 10° WNW 05:35:55 75° SSW 05:42:34 10° ESE
PAYLOAD B 4.4 05:33:33 10° N 05:39:06 61° WNW 05:44:35 10° SSW
Resurs 1-4 Rocket 3.6 05:37:07 10° NNW 05:40:59 21° WNW 05:44:50 10° WSW
PSLV R/B 3.8 05:37:07 10° NNE 05:41:22 72° ESE 05:45:38 10° S
Meteor 1-16 Rocket 4.4 05:35:46 10° SSW 05:41:40 68° WNW 05:47:34 10° N
